TimeMST,TemperatureF,Dew PointF,Humidity,Sea Level PressureIn,VisibilityMPH,Wind Direction,Wind SpeedMPH,Gust SpeedMPH,PrecipitationIn,Events,Conditions,WindDirDegrees,DateUTC
12:54 AM,18.0,7.0,62,30.47,10.0,West,15.0,-,N/A,,Clear,260,2013-01-18 07:54:00
1:54 AM,14.0,6.1,71,30.49,10.0,NW,8.1,-,N/A,,Clear,310,2013-01-18 08:54:00
2:54 AM,15.1,5.0,64,30.48,10.0,WNW,6.9,-,N/A,,Clear,290,2013-01-18 09:54:00
3:54 AM,15.1,6.1,68,30.46,10.0,NW,4.6,-,N/A,,Clear,310,2013-01-18 10:54:00
4:54 AM,19.0,7.0,59,30.44,10.0,WSW,5.8,-,N/A,,Clear,250,2013-01-18 11:54:00
5:54 AM,17.1,3.9,56,30.43,10.0,WSW,10.4,-,N/A,,Clear,240,2013-01-18 12:54:00
6:54 AM,14.0,3.0,62,30.46,10.0,West,10.4,-,N/A,,Clear,270,2013-01-18 13:54:00
7:54 AM,12.9,3.9,67,30.49,10.0,WNW,3.5,-,N/A,,Clear,290,2013-01-18 14:54:00
8:54 AM,19.0,6.1,57,30.47,10.0,Calm,Calm,-,N/A,,Clear,0,2013-01-18 15:54:00
9:54 AM,23.0,5.0,46,30.48,10.0,Calm,Calm,-,N/A,,Clear,0,2013-01-18 16:54:00
10:54 AM,27.0,7.0,43,30.45,10.0,West,6.9,-,N/A,,Clear,260,2013-01-18 17:54:00
11:54 AM,30.9,9.0,40,30.40,10.0,WSW,19.6,-,N/A,,Clear,250,2013-01-18 18:54:00
12:54 PM,33.1,10.0,38,30.37,10.0,WSW,23.0,-,N/A,,Clear,250,2013-01-18 19:54:00
1:54 PM,35.1,12.0,39,30.35,10.0,West,19.6,-,N/A,,Clear,260,2013-01-18 20:54:00
2:54 PM,35.1,12.9,40,30.35,10.0,West,27.6,32.2,N/A,,Clear,260,2013-01-18 21:54:00
3:54 PM,35.1,14.0,42,30.33,10.0,WSW,20.7,-,N/A,,Clear,250,2013-01-18 22:54:00
4:54 PM,34.0,15.1,46,30.31,10.0,WSW,26.5,-,N/A,,Clear,250,2013-01-18 23:54:00
5:54 PM,30.9,15.1,52,30.35,10.0,WSW,26.5,-,N/A,,Clear,250,2013-01-19 00:54:00
6:54 PM,30.9,14.0,50,30.36,10.0,WSW,28.8,36.8,N/A,,Clear,250,2013-01-19 01:54:00
8:54 PM,30.0,10.9,45,30.37,10.0,SW,23.0,-,N/A,,Clear,230,2013-01-19 03:54:00
9:54 PM,30.0,9.0,41,30.36,10.0,WSW,26.5,33.4,N/A,,Clear,250,2013-01-19 04:54:00
10:54 PM,28.0,9.0,45,30.35,10.0,WSW,16.1,-,N/A,,Clear,250,2013-01-19 05:54:00
11:54 PM,27.0,8.1,45,30.37,10.0,WNW,6.9,-,N/A,,Clear,300,2013-01-19 06:54:00